User: anonymous   Login
Location: Unspecified
(0.0000°N, 0.0000°E)
Time: 13:58:00
(UTC+02:00)
Language:

Orbus 21S - Orbit

View from above orbital plane
View from above orbital plane
View from above satellite
View from above satellite

Ground track
Ground track

The orbit data is extracted from the following two-line orbital elements,

1 20669U 90056C   16271.92902285  .00002133  00000-0  15221-2 0  9999
2 20669  24.1777 197.8012 7102406 193.0537 128.0821  2.47524352220896
Epoch (UTC): 27 September 2016 22:17:47
Eccentricity: 0.7102406
inclination: 24.1777°
perigee height: 311 km
apogee height: 33102 km
right ascension of ascending node: 197.8012°
argument of perigee: 193.0537°
revolutions per day: 2.47524352
mean anomaly at epoch: 128.0821°
orbit number at epoch: 22089

The dashed part of the orbit path shows where the satellite is in the earth's shadow,  

DLR